TimeCDT,TemperatureF,Dew PointF,Humidity,Sea Level PressureIn,VisibilityMPH,Wind Direction,Wind SpeedMPH,Gust SpeedMPH,PrecipitationIn,Events,Conditions,WindDirDegrees,DateUTC
12:15 AM,39.2,37.4,93,30.12,3.0,North,18.4,32.2,0.04,,Overcast,10,2012-10-04 05:15:00
12:35 AM,39.2,37.4,93,30.13,2.5,North,19.6,27.6,0.10,Rain,Rain,360,2012-10-04 05:35:00
12:55 AM,39.2,37.4,93,30.11,3.0,North,20.7,28.8,0.14,,Overcast,360,2012-10-04 05:55:00
1:15 AM,39.2,37.4,93,30.12,3.0,North,21.9,31.1,0.03,,Overcast,360,2012-10-04 06:15:00
1:35 AM,37.4,35.6,93,30.12,3.0,North,24.2,32.2,0.07,,Overcast,360,2012-10-04 06:35:00
1:55 AM,37.4,35.6,93,30.11,3.0,North,18.4,32.2,0.12,Snow,Light Snow,360,2012-10-04 06:55:00
2:15 AM,37.4,35.6,93,30.11,2.5,North,21.9,29.9,0.04,Rain,Rain,360,2012-10-04 07:15:00
2:35 AM,37.4,35.6,93,30.10,2.5,North,17.3,27.6,0.10,Rain,Light Rain,360,2012-10-04 07:35:00
2:55 AM,37.4,35.6,93,30.09,3.0,North,19.6,27.6,0.14,Rain,Light Rain,360,2012-10-04 07:55:00
3:15 AM,35.6,35.6,100,30.09,2.5,North,19.6,27.6,0.03,Rain,Light Rain,360,2012-10-04 08:15:00
3:35 AM,35.6,35.6,100,30.09,2.0,North,18.4,26.5,0.10,,Overcast,360,2012-10-04 08:35:00
3:55 AM,35.6,35.6,100,30.09,2.5,North,18.4,28.8,0.16,,Overcast,360,2012-10-04 08:55:00
4:15 AM,35.6,33.8,93,30.10,2.5,North,16.1,27.6,0.05,,Overcast,350,2012-10-04 09:15:00
4:35 AM,33.8,33.8,100,30.09,2.0,North,21.9,27.6,0.10,,Overcast,350,2012-10-04 09:35:00
4:55 AM,33.8,33.8,100,30.09,2.0,North,19.6,26.5,0.16,Snow,Light Snow,350,2012-10-04 09:55:00
5:15 AM,35.6,33.8,93,30.09,2.5,NNW,18.4,29.9,0.03,Snow,Light Snow,340,2012-10-04 10:15:00
5:35 AM,33.8,33.8,100,30.09,2.0,North,23.0,28.8,0.09,,Overcast,350,2012-10-04 10:35:00
5:55 AM,33.8,32.0,93,30.09,1.5,North,21.9,28.8,0.14,Snow,Light Snow,350,2012-10-04 10:55:00
6:15 AM,33.8,32.0,93,30.09,1.2,NNW,23.0,33.4,0.05,Snow,Light Snow,340,2012-10-04 11:15:00
6:35 AM,33.8,32.0,93,30.09,2.0,NNW,19.6,29.9,0.11,Snow,Light Snow,340,2012-10-04 11:35:00
6:55 AM,33.8,32.0,93,30.08,1.8,NNW,26.5,33.4,0.15,Snow,Light Snow,340,2012-10-04 11:55:00
7:15 AM,33.8,33.8,100,30.08,2.5,NNW,20.7,32.2,0.01,,Overcast,340,2012-10-04 12:15:00
7:35 AM,33.8,33.8,100,30.08,3.0,NNW,25.3,36.8,0.06,Snow,Light Snow,340,2012-10-04 12:35:00
7:55 AM,33.8,33.8,100,30.07,1.5,NNW,28.8,34.5,0.10,Snow,Light Snow,340,2012-10-04 12:55:00
8:15 AM,35.6,33.8,93,30.07,1.8,NNW,26.5,34.5,0.03,Snow,Light Snow,340,2012-10-04 13:15:00
8:35 AM,35.6,33.8,93,30.06,2.0,NNW,24.2,35.7,0.08,Snow,Light Snow,340,2012-10-04 13:35:00
8:55 AM,35.6,33.8,93,30.06,1.8,NNW,25.3,36.8,0.15,Snow,Light Snow,340,2012-10-04 13:55:00
9:15 AM,35.6,33.8,93,30.06,2.0,NNW,28.8,39.1,0.03,Snow,Light Snow,340,2012-10-04 14:15:00
9:35 AM,35.6,33.8,93,30.06,2.0,NNW,25.3,36.8,0.08,Snow,Light Snow,340,2012-10-04 14:35:00
9:55 AM,35.6,33.8,93,30.06,2.0,NNW,31.1,38.0,0.14,Snow,Light Snow,340,2012-10-04 14:55:00
10:15 AM,35.6,33.8,93,30.06,2.0,NNW,25.3,46.0,0.05,Snow,Light Snow,340,2012-10-04 15:15:00
10:35 AM,35.6,33.8,93,30.06,2.0,NNW,25.3,38.0,0.11,Snow,Light Snow,340,2012-10-04 15:35:00
10:55 AM,35.6,33.8,93,30.06,2.0,NNW,31.1,39.1,0.18,Snow,Light Snow,340,2012-10-04 15:55:00
11:15 AM,35.6,35.6,100,30.06,2.0,NNW,28.8,35.7,0.03,Snow,Light Snow,330,2012-10-04 16:15:00
11:35 AM,35.6,35.6,100,30.07,1.8,NNW,27.6,39.1,0.11,Snow,Light Snow,340,2012-10-04 16:35:00
11:55 AM,35.6,35.6,100,30.07,1.8,NNW,28.8,39.1,0.18,Snow,Light Snow,330,2012-10-04 16:55:00
12:15 PM,35.6,35.6,100,30.07,2.5,NNW,29.9,42.6,0.05,Snow,Light Snow,330,2012-10-04 17:15:00
12:35 PM,37.4,35.6,93,30.08,3.0,NNW,25.3,40.3,0.08,Snow,Light Snow,340,2012-10-04 17:35:00
12:55 PM,37.4,35.6,93,30.08,4.0,NNW,29.9,41.4,0.11,Snow,Light Snow,330,2012-10-04 17:55:00
1:35 PM,37.4,35.6,93,30.10,5.0,NNW,24.2,36.8,0.04,Snow,Light Snow,330,2012-10-04 18:35:00
1:55 PM,37.4,35.6,93,30.09,2.0,NNW,31.1,40.3,0.08,Snow,Light Snow,330,2012-10-04 18:55:00
2:15 PM,37.4,35.6,93,30.10,2.5,NNW,27.6,40.3,0.03,Snow,Light Snow,340,2012-10-04 19:15:00
2:35 PM,37.4,35.6,93,30.10,1.5,NNW,24.2,39.1,0.08,Snow,Light Snow,340,2012-10-04 19:35:00
2:55 PM,35.6,35.6,100,30.10,1.5,NNW,16.1,26.5,0.15,,Overcast,330,2012-10-04 19:55:00
3:15 PM,35.6,35.6,100,30.10,1.8,NNW,16.1,26.5,0.02,Snow,Light Snow,330,2012-10-04 20:15:00
3:35 PM,37.4,35.6,93,30.10,1.8,NNW,21.9,27.6,0.05,,Overcast,330,2012-10-04 20:35:00
3:55 PM,37.4,35.6,93,30.10,2.0,NNW,25.3,29.9,0.09,,Overcast,340,2012-10-04 20:55:00
4:15 PM,37.4,35.6,93,30.10,2.5,NW,26.5,32.2,0.01,,Overcast,320,2012-10-04 21:15:00
4:35 PM,37.4,35.6,93,30.11,3.0,NW,20.7,39.1,0.04,Snow,Light Snow,320,2012-10-04 21:35:00
4:55 PM,37.4,35.6,93,30.12,2.5,NW,23.0,34.5,0.06,Snow,Light Snow,320,2012-10-04 21:55:00
5:15 PM,37.4,35.6,93,30.12,2.5,NNW,23.0,36.8,0.01,,Overcast,330,2012-10-04 22:15:00
5:35 PM,37.4,35.6,93,30.12,3.0,NW,24.2,38.0,0.03,,Overcast,320,2012-10-04 22:35:00
5:55 PM,37.4,35.6,93,30.13,4.0,NNW,24.2,35.7,0.04,,Overcast,330,2012-10-04 22:55:00
6:15 PM,37.4,33.8,87,30.13,8.0,NW,27.6,38.0,N/A,Rain,Light Rain,320,2012-10-04 23:15:00
6:35 PM,37.4,33.8,87,30.13,10.0,NW,25.3,38.0,N/A,Rain,Light Rain,320,2012-10-04 23:35:00
6:55 PM,37.4,32.0,81,30.13,10.0,NW,27.6,38.0,N/A,Rain,Light Rain,320,2012-10-04 23:55:00
7:15 PM,37.4,32.0,81,30.14,10.0,NW,23.0,35.7,N/A,Rain,Light Rain,320,2012-10-05 00:15:00
7:35 PM,35.6,32.0,87,30.15,10.0,NW,25.3,36.8,N/A,Rain,Light Rain,320,2012-10-05 00:35:00
7:55 PM,35.6,32.0,87,30.15,10.0,NW,26.5,36.8,N/A,Rain,Light Rain,320,2012-10-05 00:55:00
8:15 PM,35.6,32.0,87,30.15,9.0,NW,25.3,39.1,N/A,Rain,Light Rain,320,2012-10-05 01:15:00
8:35 PM,35.6,32.0,87,30.15,5.0,NW,24.2,32.2,N/A,Rain,Light Rain,320,2012-10-05 01:35:00
8:55 PM,35.6,32.0,87,30.15,5.0,NW,18.4,34.5,0.01,Snow,Light Snow,320,2012-10-05 01:55:00
9:15 PM,35.6,32.0,87,30.15,6.0,NW,23.0,31.1,N/A,Rain,Light Rain,320,2012-10-05 02:15:00
9:35 PM,35.6,32.0,87,30.16,5.0,NW,23.0,32.2,N/A,Rain,Light Rain,320,2012-10-05 02:35:00
9:55 PM,33.8,32.0,93,30.16,3.0,NW,23.0,35.7,0.01,Rain,Light Rain,320,2012-10-05 02:55:00
10:15 PM,33.8,32.0,93,30.16,6.0,NW,21.9,33.4,N/A,Rain,Light Rain,320,2012-10-05 03:15:00
10:35 PM,33.8,32.0,93,30.16,8.0,NW,19.6,31.1,N/A,Rain,Light Rain,320,2012-10-05 03:35:00
10:55 PM,33.8,32.0,93,30.16,7.0,NW,23.0,29.9,N/A,Rain,Light Rain,320,2012-10-05 03:55:00
11:15 PM,33.8,32.0,93,30.16,5.0,NW,23.0,31.1,N/A,Rain,Light Rain,320,2012-10-05 04:15:00
11:35 PM,33.8,32.0,93,30.16,3.0,NW,20.7,27.6,0.01,,Overcast,320,2012-10-05 04:35:00
11:55 PM,32.0,32.0,100,30.15,3.0,NW,19.6,31.1,0.02,,Overcast,320,2012-10-05 04:55:00